Time,TemperatureF,DewpointF,PressureIn,WindDirection,WindDirectionDegrees,WindSpeedMPH,WindSpeedGustMPH,Humidity,HourlyPrecipIn,Conditions,Clouds,dailyrainin,SoftwareType,DateUTC
2013-02-23 00:02:00,33.7,25.3,29.97,SSW,192,4.0,7.0,71,0.00,,,0.00,Wunderground v.1.15,2013-02-23 05:02:00,
2013-02-23 00:07:00,34.0,25.2,29.97,South,171,5.0,7.0,70,0.00,,,0.00,Wunderground v.1.15,2013-02-23 05:07:00,
2013-02-23 00:12:00,34.0,25.2,29.97,SSE,165,6.0,6.0,70,0.00,,,0.00,Wunderground v.1.15,2013-02-23 05:12:00,
2013-02-23 00:27:00,33.8,25.0,29.96,South,179,5.0,5.0,70,0.00,,,0.00,Wunderground v.1.15,2013-02-23 05:27:00,
2013-02-23 00:32:00,34.0,25.2,29.97,South,185,4.0,6.0,70,0.00,,,0.00,Wunderground v.1.15,2013-02-23 05:32:00,
2013-02-23 00:37:00,34.1,25.3,29.97,SSE,164,5.0,9.0,70,0.00,,,0.00,Wunderground v.1.15,2013-02-23 05:37:00,
2013-02-23 00:47:00,34.3,25.5,29.97,South,174,5.0,9.0,70,0.00,,,0.00,Wunderground v.1.15,2013-02-23 05:47:00,
2013-02-23 00:52:00,34.3,25.5,29.97,South,174,6.0,6.0,70,0.00,,,0.00,Wunderground v.1.15,2013-02-23 05:52:00,
2013-02-23 01:02:00,34.3,25.5,29.97,SSW,193,4.0,4.0,70,0.00,,,0.00,Wunderground v.1.15,2013-02-23 06:02:00,
2013-02-23 01:07:00,34.1,25.3,29.97,SSE,168,4.0,4.0,70,0.00,,,0.00,Wunderground v.1.15,2013-02-23 06:07:00,
2013-02-23 01:22:00,34.1,25.3,29.97,SSE,165,5.0,5.0,70,0.00,,,0.00,Wunderground v.1.15,2013-02-23 06:22:00,
2013-02-23 01:32:00,34.3,25.9,29.96,South,185,5.0,5.0,71,0.00,,,0.00,Wunderground v.1.15,2013-02-23 06:32:00,
2013-02-23 01:37:00,34.4,26.0,29.96,SSW,199,5.0,7.0,71,0.00,,,0.00,Wunderground v.1.15,2013-02-23 06:37:00,
2013-02-23 01:47:00,34.6,26.2,29.95,South,178,6.0,6.0,71,0.00,,,0.00,Wunderground v.1.15,2013-02-23 06:47:00,
2013-02-23 01:52:00,34.6,25.8,29.95,South,171,6.0,7.0,70,0.00,,,0.00,Wunderground v.1.15,2013-02-23 06:52:00,
2013-02-23 02:02:00,34.7,25.9,29.95,SSW,196,6.0,6.0,70,0.00,,,0.00,Wunderground v.1.15,2013-02-23 07:02:00,
2013-02-23 02:07:00,34.7,25.9,29.95,SSW,196,5.0,6.0,70,0.00,,,0.00,Wunderground v.1.15,2013-02-23 07:07:00,
2013-02-23 02:17:00,34.7,25.9,29.96,South,184,5.0,7.0,70,0.00,,,0.00,Wunderground v.1.15,2013-02-23 07:17:00,
2013-02-23 02:23:00,34.7,25.6,29.96,South,179,7.0,7.0,69,0.00,,,0.00,Wunderground v.1.15,2013-02-23 07:23:00,
2013-02-23 02:32:00,34.7,25.6,29.95,South,182,4.0,7.0,69,0.00,,,0.00,Wunderground v.1.15,2013-02-23 07:32:00,
2013-02-23 02:37:00,34.7,25.6,29.95,South,176,6.0,6.0,69,0.00,,,0.00,Wunderground v.1.15,2013-02-23 07:37:00,
2013-02-23 02:47:00,34.7,25.6,29.95,South,179,8.0,14.0,69,0.00,,,0.00,Wunderground v.1.15,2013-02-23 07:47:00,
2013-02-23 02:52:00,34.7,25.6,29.95,SSW,198,7.0,14.0,69,0.00,,,0.00,Wunderground v.1.15,2013-02-23 07:52:00,
2013-02-23 03:02:00,34.6,25.8,29.95,SSW,208,5.0,5.0,70,0.00,,,0.00,Wunderground v.1.15,2013-02-23 08:02:00,
2013-02-23 03:12:00,34.6,25.8,29.95,SSW,205,5.0,5.0,70,0.00,,,0.00,Wunderground v.1.15,2013-02-23 08:12:00,
2013-02-23 03:22:00,34.6,25.8,29.95,South,189,4.0,4.0,70,0.00,,,0.00,Wunderground v.1.15,2013-02-23 08:22:00,
2013-02-23 03:32:00,34.6,25.8,29.95,South,179,4.0,5.0,70,0.00,,,0.00,Wunderground v.1.15,2013-02-23 08:32:00,
2013-02-23 03:38:00,34.6,25.8,29.95,South,182,4.0,5.0,70,0.00,,,0.00,Wunderground v.1.15,2013-02-23 08:38:00,
2013-02-23 03:47:00,34.4,26.0,29.95,SSW,198,5.0,10.0,71,0.00,,,0.00,Wunderground v.1.15,2013-02-23 08:47:00,
2013-02-23 03:52:00,34.1,26.3,29.95,SSW,198,6.0,6.0,73,0.00,,,0.00,Wunderground v.1.15,2013-02-23 08:52:00,
2013-02-23 04:02:00,33.2,26.8,29.94,South,186,6.0,7.0,77,0.00,,,0.00,Wunderground v.1.15,2013-02-23 09:02:00,
2013-02-23 04:07:00,32.9,27.1,29.94,South,176,6.0,7.0,79,0.00,,,0.00,Wunderground v.1.15,2013-02-23 09:07:00,
2013-02-23 04:17:00,32.8,27.6,29.94,South,174,5.0,7.0,81,0.00,,,0.00,Wunderground v.1.15,2013-02-23 09:17:00,
2013-02-23 04:22:00,32.8,27.6,29.94,SSE,164,4.0,5.0,81,0.00,,,0.00,Wunderground v.1.15,2013-02-23 09:22:00,
2013-02-23 04:32:00,32.9,27.4,29.94,SSW,209,4.0,4.0,80,0.00,,,0.00,Wunderground v.1.15,2013-02-23 09:32:00,
2013-02-23 04:38:00,33.1,27.3,29.94,South,189,5.0,5.0,79,0.00,,,0.00,Wunderground v.1.15,2013-02-23 09:38:00,
2013-02-23 04:47:00,33.2,27.1,29.93,South,181,4.0,8.0,78,0.00,,,0.00,Wunderground v.1.15,2013-02-23 09:47:00,
2013-02-23 04:52:00,33.2,27.1,29.93,South,181,3.0,4.0,78,0.00,,,0.00,Wunderground v.1.15,2013-02-23 09:52:00,
2013-02-23 05:02:00,33.2,27.1,29.94,South,175,3.0,7.0,78,0.00,,,0.00,Wunderground v.1.15,2013-02-23 10:02:00,
2013-02-23 05:08:00,33.4,27.3,29.94,South,184,3.0,7.0,78,0.00,,,0.00,Wunderground v.1.15,2013-02-23 10:08:00,
2013-02-23 05:17:00,33.4,27.3,29.94,SSE,162,3.0,3.0,78,0.00,,,0.00,Wunderground v.1.15,2013-02-23 10:17:00,
2013-02-23 05:22:00,33.2,27.4,29.94,SE,145,3.0,5.0,79,0.00,,,0.00,Wunderground v.1.15,2013-02-23 10:22:00,
2013-02-23 05:32:00,33.2,27.4,29.93,SE,145,3.0,3.0,79,0.00,,,0.00,Wunderground v.1.15,2013-02-23 10:32:00,
2013-02-23 05:37:00,33.2,27.4,29.93,SSE,151,2.0,3.0,79,0.00,,,0.00,Wunderground v.1.15,2013-02-23 10:37:00,
2013-02-23 05:47:00,33.4,27.3,29.92,SSE,167,4.0,4.0,78,0.00,,,0.00,Wunderground v.1.15,2013-02-23 10:47:00,
2013-02-23 05:57:00,33.7,26.9,29.92,SSW,206,4.0,6.0,76,0.00,,,0.00,Wunderground v.1.15,2013-02-23 10:57:00,
2013-02-23 06:07:00,33.8,26.7,29.92,South,184,5.0,5.0,75,0.00,,,0.00,Wunderground v.1.15,2013-02-23 11:07:00,
2013-02-23 06:17:00,34.0,26.6,29.92,SSE,162,5.0,5.0,74,0.00,,,0.00,Wunderground v.1.15,2013-02-23 11:17:00,
2013-02-23 06:27:00,34.1,26.7,29.92,South,174,5.0,5.0,74,0.00,,,0.00,Wunderground v.1.15,2013-02-23 11:27:00,
2013-02-23 06:32:00,34.3,26.9,29.92,South,189,5.0,6.0,74,0.00,,,0.00,Wunderground v.1.15,2013-02-23 11:32:00,
2013-02-23 06:42:00,34.1,27.0,29.92,SSW,210,4.0,8.0,75,0.00,,,0.00,Wunderground v.1.15,2013-02-23 11:42:00,
2013-02-23 06:47:00,34.1,27.0,29.92,South,169,5.0,8.0,75,0.00,,,0.00,Wunderground v.1.15,2013-02-23 11:47:00,
2013-02-23 06:57:00,34.0,27.2,29.92,SSE,167,5.0,5.0,76,0.00,,,0.00,Wunderground v.1.15,2013-02-23 11:57:00,
2013-02-23 07:02:00,34.0,27.2,29.91,South,171,5.0,7.0,76,0.00,,,0.00,Wunderground v.1.15,2013-02-23 12:02:00,
2013-02-23 07:07:00,33.8,27.4,29.91,South,176,5.0,7.0,77,0.00,,,0.00,Wunderground v.1.15,2013-02-23 12:07:00,
2013-02-23 07:17:00,34.0,27.5,29.91,SSW,195,5.0,8.0,77,0.00,,,0.00,Wunderground v.1.15,2013-02-23 12:17:00,
2013-02-23 07:22:00,34.0,27.5,29.91,South,178,4.0,5.0,77,0.00,,,0.00,Wunderground v.1.15,2013-02-23 12:22:00,
2013-02-23 07:32:00,34.0,27.5,29.92,SSW,199,5.0,5.0,77,0.00,,,0.00,Wunderground v.1.15,2013-02-23 12:32:00,
2013-02-23 07:37:00,34.1,27.6,29.92,SSW,193,5.0,7.0,77,0.00,,,0.00,Wunderground v.1.15,2013-02-23 12:37:00,
2013-02-23 07:47:00,34.1,27.6,29.92,SSW,196,5.0,5.0,77,0.00,,,0.00,Wunderground v.1.15,2013-02-23 12:47:00,
2013-02-23 07:52:00,34.1,27.6,29.92,SSW,202,5.0,6.0,77,0.00,,,0.00,Wunderground v.1.15,2013-02-23 12:52:00,
2013-02-23 08:02:00,34.1,28.0,29.92,SSW,198,4.0,5.0,78,0.00,,,0.00,Wunderground v.1.15,2013-02-23 13:02:00,
2013-02-23 08:07:00,34.1,28.0,29.92,South,185,4.0,5.0,78,0.00,,,0.00,Wunderground v.1.15,2013-02-23 13:07:00,
2013-02-23 08:17:00,34.1,28.0,29.93,SSW,206,3.0,4.0,78,0.00,,,0.00,Wunderground v.1.15,2013-02-23 13:17:00,
2013-02-23 08:23:00,34.1,28.0,29.93,SSW,198,3.0,3.0,78,0.00,,,0.00,Wunderground v.1.15,2013-02-23 13:23:00,
2013-02-23 08:32:00,34.1,28.0,29.93,SSW,203,2.0,3.0,78,0.00,,,0.00,Wunderground v.1.15,2013-02-23 13:32:00,
2013-02-23 08:37:00,34.3,28.2,29.93,WSW,241,4.0,4.0,78,0.00,,,0.00,Wunderground v.1.15,2013-02-23 13:37:00,
2013-02-23 08:47:00,34.3,28.2,29.93,SW,215,5.0,5.0,78,0.00,,,0.00,Wunderground v.1.15,2013-02-23 13:47:00,
2013-02-23 08:53:00,34.1,28.3,29.93,South,181,5.0,5.0,79,0.00,,,0.00,Wunderground v.1.15,2013-02-23 13:53:00,
2013-02-23 09:02:00,34.0,28.5,29.93,SSW,196,2.0,5.0,80,0.00,,,0.00,Wunderground v.1.15,2013-02-23 14:02:00,
2013-02-23 09:07:00,33.8,28.3,29.93,SW,216,3.0,5.0,80,0.00,,,0.00,Wunderground v.1.15,2013-02-23 14:07:00,
2013-02-23 09:17:00,33.8,28.6,29.92,South,176,2.0,4.0,81,0.00,,,0.00,Wunderground v.1.15,2013-02-23 14:17:00,
2013-02-23 09:27:00,33.8,29.2,29.92,SSW,205,4.0,4.0,83,0.00,,,0.00,Wunderground v.1.15,2013-02-23 14:27:00,
2013-02-23 09:32:00,34.0,29.4,29.92,SSW,195,3.0,4.0,83,0.00,,,0.00,Wunderground v.1.15,2013-02-23 14:32:00,
2013-02-23 09:38:00,34.0,29.4,29.92,South,175,3.0,4.0,83,0.00,,,0.00,Wunderground v.1.15,2013-02-23 14:38:00,
2013-02-23 09:47:00,34.0,29.4,29.91,SSW,193,3.0,4.0,83,0.00,,,0.00,Wunderground v.1.15,2013-02-23 14:47:00,
2013-02-23 09:52:00,34.1,29.5,29.91,SSW,193,2.0,2.0,83,0.00,,,0.00,Wunderground v.1.15,2013-02-23 14:52:00,
2013-02-23 10:02:00,34.1,29.5,29.90,SSW,198,2.0,2.0,83,0.00,,,0.00,Wunderground v.1.15,2013-02-23 15:02:00,
2013-02-23 10:08:00,34.1,29.2,29.90,South,175,3.0,3.0,82,0.00,,,0.00,Wunderground v.1.15,2013-02-23 15:08:00,
2013-02-23 10:17:00,34.3,29.4,29.90,South,175,2.0,3.0,82,0.00,,,0.00,Wunderground v.1.15,2013-02-23 15:17:00,
2013-02-23 10:22:00,34.4,29.5,29.90,South,175,2.0,2.0,82,0.00,,,0.00,Wunderground v.1.15,2013-02-23 15:22:00,
2013-02-23 10:32:00,34.4,29.5,29.90,South,178,1.0,1.0,82,0.00,,,0.00,Wunderground v.1.15,2013-02-23 15:32:00,
2013-02-23 10:37:00,34.3,29.4,29.90,South,184,1.0,1.0,82,0.00,,,0.00,Wunderground v.1.15,2013-02-23 15:37:00,
2013-02-23 10:47:00,34.6,29.7,29.90,SSW,210,1.0,5.0,82,0.00,,,0.01,Wunderground v.1.15,2013-02-23 15:47:00,
2013-02-23 10:52:00,34.7,29.8,29.90,SSW,210,2.0,2.0,82,0.00,,,0.01,Wunderground v.1.15,2013-02-23 15:52:00,
2013-02-23 11:02:00,34.9,29.7,29.89,SSE,162,4.0,10.0,81,0.00,,,0.01,Wunderground v.1.15,2013-02-23 16:02:00,
2013-02-23 11:07:00,35.2,30.0,29.89,SSW,199,4.0,10.0,81,0.00,,,0.01,Wunderground v.1.15,2013-02-23 16:07:00,
2013-02-23 11:17:00,35.5,29.6,29.89,South,182,5.0,6.0,79,0.00,,,0.01,Wunderground v.1.15,2013-02-23 16:17:00,
2013-02-23 11:22:00,35.5,29.6,29.89,South,178,6.0,6.0,79,0.00,,,0.01,Wunderground v.1.15,2013-02-23 16:22:00,
2013-02-23 11:32:00,35.6,29.4,29.89,South,172,5.0,6.0,78,0.00,,,0.02,Wunderground v.1.15,2013-02-23 16:32:00,
2013-02-23 11:37:00,35.8,29.6,29.89,South,174,5.0,5.0,78,0.00,,,0.02,Wunderground v.1.15,2013-02-23 16:37:00,
2013-02-23 11:47:00,35.8,29.6,29.88,South,185,5.0,5.0,78,0.00,,,0.02,Wunderground v.1.15,2013-02-23 16:47:00,
2013-02-23 11:52:00,36.0,29.8,29.88,SSW,192,5.0,7.0,78,0.00,,,0.02,Wunderground v.1.15,2013-02-23 16:52:00,
2013-02-23 12:02:00,36.5,30.0,29.88,SSW,206,4.0,4.0,77,0.00,,,0.02,Wunderground v.1.15,2013-02-23 17:02:00,
2013-02-23 12:07:00,36.6,29.7,29.88,South,186,4.0,4.0,76,0.00,,,0.02,Wunderground v.1.15,2013-02-23 17:07:00,
2013-02-23 12:17:00,37.0,30.1,29.87,SSW,198,2.0,5.0,76,0.00,,,0.02,Wunderground v.1.15,2013-02-23 17:17:00,
2013-02-23 12:22:00,37.0,29.8,29.87,South,186,3.0,3.0,75,0.00,,,0.02,Wunderground v.1.15,2013-02-23 17:22:00,
2013-02-23 12:32:00,37.2,29.7,29.87,South,178,5.0,5.0,74,0.00,,,0.03,Wunderground v.1.15,2013-02-23 17:32:00,
2013-02-23 12:37:00,37.3,29.4,29.87,SSW,195,5.0,5.0,73,0.00,,,0.03,Wunderground v.1.15,2013-02-23 17:37:00,
2013-02-23 12:47:00,37.6,29.7,29.86,South,182,3.0,4.0,73,0.00,,,0.03,Wunderground v.1.15,2013-02-23 17:47:00,
2013-02-23 12:52:00,37.6,29.4,29.86,South,185,3.0,3.0,72,0.00,,,0.03,Wunderground v.1.15,2013-02-23 17:52:00,
2013-02-23 13:02:00,37.8,29.6,29.86,South,182,3.0,5.0,72,0.00,,,0.03,Wunderground v.1.15,2013-02-23 18:02:00,
2013-02-23 13:07:00,38.0,29.8,29.86,SSW,205,4.0,5.0,72,0.00,,,0.03,Wunderground v.1.15,2013-02-23 18:07:00,
2013-02-23 13:17:00,38.3,29.7,29.85,SSE,164,2.0,3.0,71,0.00,,,0.03,Wunderground v.1.15,2013-02-23 18:17:00,
2013-02-23 13:23:00,38.3,29.7,29.85,SSW,196,2.0,4.0,71,0.00,,,0.03,Wunderground v.1.15,2013-02-23 18:23:00,
2013-02-23 13:32:00,38.5,29.9,29.85,South,186,4.0,5.0,71,0.00,,,0.03,Wunderground v.1.15,2013-02-23 18:32:00,
2013-02-23 13:37:00,38.5,29.9,29.85,SSW,193,4.0,4.0,71,0.00,,,0.03,Wunderground v.1.15,2013-02-23 18:37:00,
2013-02-23 13:47:00,38.5,29.9,29.84,SSW,202,4.0,4.0,71,0.00,,,0.03,Wunderground v.1.15,2013-02-23 18:47:00,
2013-02-23 13:52:00,38.5,29.6,29.84,South,172,4.0,8.0,70,0.00,,,0.03,Wunderground v.1.15,2013-02-23 18:52:00,
2013-02-23 14:02:00,38.8,29.8,29.84,South,185,3.0,3.0,70,0.00,,,0.03,Wunderground v.1.15,2013-02-23 19:02:00,
2013-02-23 14:07:00,38.9,29.9,29.84,SSW,192,2.0,3.0,70,0.00,,,0.03,Wunderground v.1.15,2013-02-23 19:07:00,
2013-02-23 14:17:00,39.1,29.8,29.83,South,181,3.0,3.0,69,0.00,,,0.03,Wunderground v.1.15,2013-02-23 19:17:00,
2013-02-23 14:23:00,39.1,30.1,29.83,South,179,3.0,3.0,70,0.00,,,0.03,Wunderground v.1.15,2013-02-23 19:23:00,
2013-02-23 14:32:00,39.2,30.2,29.83,South,184,1.0,3.0,70,0.00,,,0.03,Wunderground v.1.15,2013-02-23 19:32:00,
2013-02-23 14:37:00,39.2,29.9,29.83,South,186,2.0,6.0,69,0.00,,,0.03,Wunderground v.1.15,2013-02-23 19:37:00,
2013-02-23 14:47:00,39.2,29.9,29.83,SSW,212,3.0,3.0,69,0.00,,,0.03,Wunderground v.1.15,2013-02-23 19:47:00,
2013-02-23 14:52:00,39.2,29.9,29.83,SSW,192,3.0,8.0,69,0.00,,,0.03,Wunderground v.1.15,2013-02-23 19:52:00,
2013-02-23 15:02:00,39.2,29.9,29.83,SSW,199,3.0,3.0,69,0.00,,,0.03,Wunderground v.1.15,2013-02-23 20:02:00,
2013-02-23 15:07:00,39.2,29.9,29.83,South,191,2.0,3.0,69,0.00,,,0.03,Wunderground v.1.15,2013-02-23 20:07:00,
2013-02-23 15:17:00,39.3,30.0,29.83,SSE,168,2.0,3.0,69,0.00,,,0.03,Wunderground v.1.15,2013-02-23 20:17:00,
2013-02-23 15:23:00,39.3,30.0,29.83,South,171,3.0,3.0,69,0.00,,,0.03,Wunderground v.1.15,2013-02-23 20:23:00,
2013-02-23 15:32:00,39.3,30.0,29.83,South,176,2.0,3.0,69,0.00,,,0.03,Wunderground v.1.15,2013-02-23 20:32:00,
2013-02-23 15:37:00,39.3,30.0,29.83,South,176,2.0,2.0,69,0.00,,,0.03,Wunderground v.1.15,2013-02-23 20:37:00,
2013-02-23 15:47:00,39.2,30.2,29.83,South,176,0.0,0.0,70,0.00,,,0.03,Wunderground v.1.15,2013-02-23 20:47:00,
2013-02-23 15:52:00,39.2,30.2,29.83,South,176,0.0,0.0,70,0.00,,,0.03,Wunderground v.1.15,2013-02-23 20:52:00,
2013-02-23 16:02:00,39.1,30.1,29.83,South,176,1.0,1.0,70,0.00,,,0.03,Wunderground v.1.15,2013-02-23 21:02:00,
2013-02-23 16:08:00,39.1,30.1,29.83,South,176,0.0,1.0,70,0.00,,,0.03,Wunderground v.1.15,2013-02-23 21:08:00,
2013-02-23 16:17:00,38.9,30.3,29.82,South,176,0.0,0.0,71,0.00,,,0.03,Wunderground v.1.15,2013-02-23 21:17:00,
2013-02-23 16:22:00,38.8,30.2,29.82,South,176,0.0,2.0,71,0.00,,,0.03,Wunderground v.1.15,2013-02-23 21:22:00,
2013-02-23 16:32:00,38.0,29.1,29.83,WSW,241,0.0,2.0,70,0.00,,,0.03,Wunderground v.1.15,2013-02-23 21:32:00,
2013-02-23 16:37:00,37.6,29.0,29.83,WSW,241,0.0,2.0,71,0.00,,,0.03,Wunderground v.1.15,2013-02-23 21:37:00,
2013-02-23 16:47:00,37.0,28.5,29.84,WSW,241,0.0,0.0,71,0.00,,,0.03,Wunderground v.1.15,2013-02-23 21:47:00,
2013-02-23 16:52:00,36.8,28.3,29.84,SW,227,0.0,0.0,71,0.00,,,0.03,Wunderground v.1.15,2013-02-23 21:52:00,
2013-02-23 17:02:00,36.3,27.8,29.84,SW,236,0.0,0.0,71,0.00,,,0.03,Wunderground v.1.15,2013-02-23 22:02:00,
2013-02-23 17:07:00,36.0,27.5,29.84,SW,236,0.0,0.0,71,0.00,,,0.03,Wunderground v.1.15,2013-02-23 22:07:00,
2013-02-23 17:17:00,35.6,27.5,29.84,WSW,243,1.0,1.0,72,0.00,,,0.03,Wunderground v.1.15,2013-02-23 22:17:00,
2013-02-23 17:22:00,35.5,27.7,29.84,WSW,254,1.0,1.0,73,0.00,,,0.03,Wunderground v.1.15,2013-02-23 22:22:00,
2013-02-23 17:32:00,35.2,27.7,29.84,West,280,1.0,1.0,74,0.00,,,0.03,Wunderground v.1.15,2013-02-23 22:32:00,
2013-02-23 17:38:00,35.0,27.5,29.84,West,280,0.0,1.0,74,0.00,,,0.03,Wunderground v.1.15,2013-02-23 22:38:00,
2013-02-23 17:47:00,34.7,27.3,29.84,West,281,1.0,2.0,74,0.00,,,0.03,Wunderground v.1.15,2013-02-23 22:47:00,
2013-02-23 17:52:00,34.6,27.2,29.84,NW,312,1.0,1.0,74,0.00,,,0.03,Wunderground v.1.15,2013-02-23 22:52:00,
2013-02-23 18:02:00,34.4,27.0,29.85,NW,312,0.0,0.0,74,0.00,,,0.03,Wunderground v.1.15,2013-02-23 23:02:00,
2013-02-23 18:07:00,34.3,26.9,29.85,West,274,1.0,2.0,74,0.00,,,0.03,Wunderground v.1.15,2013-02-23 23:07:00,
2013-02-23 18:17:00,34.1,27.0,29.84,West,274,1.0,1.0,75,0.00,,,0.03,Wunderground v.1.15,2013-02-23 23:17:00,
2013-02-23 18:22:00,34.0,26.6,29.84,West,277,1.0,1.0,74,0.00,,,0.03,Wunderground v.1.15,2013-02-23 23:22:00,
2013-02-23 18:32:00,33.7,26.3,29.85,West,272,2.0,2.0,74,0.00,,,0.03,Wunderground v.1.15,2013-02-23 23:32:00,
2013-02-23 18:37:00,33.5,26.1,29.85,West,272,1.0,2.0,74,0.00,,,0.03,Wunderground v.1.15,2013-02-23 23:37:00,
2013-02-23 18:47:00,33.4,26.0,29.85,West,274,0.0,0.0,74,0.00,,,0.03,Wunderground v.1.15,2013-02-23 23:47:00,
2013-02-23 18:52:00,33.4,26.0,29.85,West,278,0.0,0.0,74,0.00,,,0.03,Wunderground v.1.15,2013-02-23 23:52:00,
2013-02-23 19:02:00,33.2,25.8,29.86,West,278,1.0,1.0,74,0.00,,,0.03,Wunderground v.1.15,2013-02-24 00:02:00,
2013-02-23 19:07:00,33.2,25.5,29.86,West,281,1.0,1.0,73,0.00,,,0.03,Wunderground v.1.15,2013-02-24 00:07:00,
2013-02-23 19:17:00,33.1,25.4,29.87,WNW,301,1.0,1.0,73,0.00,,,0.03,Wunderground v.1.15,2013-02-24 00:17:00,
2013-02-23 19:22:00,33.1,24.7,29.87,NW,309,2.0,2.0,71,0.00,,,0.03,Wunderground v.1.15,2013-02-24 00:22:00,
2013-02-23 19:32:00,32.9,24.2,29.87,WNW,301,2.0,2.0,70,0.00,,,0.03,Wunderground v.1.15,2013-02-24 00:32:00,
2013-02-23 19:37:00,32.9,24.2,29.87,West,281,1.0,2.0,70,0.00,,,0.03,Wunderground v.1.15,2013-02-24 00:37:00,
2013-02-23 19:47:00,32.9,24.2,29.87,West,281,0.0,1.0,70,0.00,,,0.03,Wunderground v.1.15,2013-02-24 00:47:00,
2013-02-23 19:52:00,32.8,24.1,29.87,West,264,1.0,1.0,70,0.00,,,0.03,Wunderground v.1.15,2013-02-24 00:52:00,
2013-02-23 20:02:00,32.8,24.1,29.87,WNW,292,1.0,1.0,70,0.00,,,0.03,Wunderground v.1.15,2013-02-24 01:02:00,
2013-02-23 20:07:00,32.8,24.1,29.87,WNW,289,1.0,3.0,70,0.00,,,0.03,Wunderground v.1.15,2013-02-24 01:07:00,
2013-02-23 20:17:00,32.8,24.1,29.87,WNW,296,1.0,2.0,70,0.00,,,0.03,Wunderground v.1.15,2013-02-24 01:17:00,
2013-02-23 20:23:00,32.8,24.1,29.87,WNW,289,1.0,2.0,70,0.00,,,0.03,Wunderground v.1.15,2013-02-24 01:23:00,
2013-02-23 20:32:00,32.7,24.0,29.87,NW,305,1.0,5.0,70,0.00,,,0.03,Wunderground v.1.15,2013-02-24 01:32:00,
2013-02-23 20:37:00,32.7,23.6,29.87,NW,305,1.0,1.0,69,0.00,,,0.03,Wunderground v.1.15,2013-02-24 01:37:00,
2013-02-23 20:47:00,32.7,23.6,29.87,WSW,246,0.0,0.0,69,0.00,,,0.03,Wunderground v.1.15,2013-02-24 01:47:00,
2013-02-23 20:52:00,32.7,23.6,29.87,WSW,246,0.0,1.0,69,0.00,,,0.03,Wunderground v.1.15,2013-02-24 01:52:00,
2013-02-23 21:02:00,32.7,23.6,29.86,WNW,299,1.0,1.0,69,0.00,,,0.03,Wunderground v.1.15,2013-02-24 02:02:00,
2013-02-23 21:07:00,32.5,23.1,29.86,WNW,291,2.0,2.0,68,0.00,,,0.03,Wunderground v.1.15,2013-02-24 02:07:00,
2013-02-23 21:17:00,32.5,22.8,29.86,WNW,291,1.0,2.0,67,0.00,,,0.03,Wunderground v.1.15,2013-02-24 02:17:00,
2013-02-23 21:23:00,32.5,22.8,29.86,WNW,299,1.0,2.0,67,0.00,,,0.03,Wunderground v.1.15,2013-02-24 02:23:00,
2013-02-23 21:32:00,32.5,22.8,29.86,SW,232,1.0,2.0,67,0.00,,,0.03,Wunderground v.1.15,2013-02-24 02:32:00,
2013-02-23 21:37:00,32.5,22.8,29.86,SW,232,1.0,1.0,67,0.00,,,0.03,Wunderground v.1.15,2013-02-24 02:37:00,
2013-02-23 21:47:00,32.5,22.8,29.86,SW,232,0.0,0.0,67,0.00,,,0.03,Wunderground v.1.15,2013-02-24 02:47:00,
2013-02-23 21:53:00,32.5,22.8,29.86,SW,232,0.0,2.0,67,0.00,,,0.03,Wunderground v.1.15,2013-02-24 02:53:00,
2013-02-23 22:02:00,32.5,22.8,29.86,SW,230,0.0,2.0,67,0.00,,,0.03,Wunderground v.1.15,2013-02-24 03:02:00,
2013-02-23 22:07:00,32.5,22.8,29.86,WSW,244,1.0,2.0,67,0.00,,,0.03,Wunderground v.1.15,2013-02-24 03:07:00,
2013-02-23 22:17:00,32.5,22.8,29.85,WSW,244,0.0,1.0,67,0.00,,,0.03,Wunderground v.1.15,2013-02-24 03:17:00,
2013-02-23 22:23:00,32.5,22.8,29.85,WSW,244,0.0,3.0,67,0.00,,,0.03,Wunderground v.1.15,2013-02-24 03:23:00,
2013-02-23 22:32:00,32.5,22.4,29.85,WNW,288,1.0,3.0,66,0.00,,,0.03,Wunderground v.1.15,2013-02-24 03:32:00,
2013-02-23 22:37:00,32.5,22.4,29.85,WNW,288,1.0,1.0,66,0.00,,,0.03,Wunderground v.1.15,2013-02-24 03:37:00,
2013-02-23 22:47:00,32.5,22.4,29.84,SSE,167,0.0,0.0,66,0.00,,,0.03,Wunderground v.1.15,2013-02-24 03:47:00,
2013-02-23 22:52:00,32.4,22.3,29.84,SSE,168,1.0,1.0,66,0.00,,,0.03,Wunderground v.1.15,2013-02-24 03:52:00,
2013-02-23 23:02:00,32.4,22.3,29.84,SSE,168,0.0,0.0,66,0.00,,,0.03,Wunderground v.1.15,2013-02-24 04:02:00,
2013-02-23 23:07:00,32.4,22.7,29.84,SSE,168,0.0,0.0,67,0.00,,,0.03,Wunderground v.1.15,2013-02-24 04:07:00,
2013-02-23 23:17:00,32.2,22.5,29.83,SSE,168,0.0,2.0,67,0.00,,,0.03,Wunderground v.1.15,2013-02-24 04:17:00,
2013-02-23 23:22:00,32.2,22.5,29.83,SSE,168,0.0,0.0,67,0.00,,,0.03,Wunderground v.1.15,2013-02-24 04:22:00,
2013-02-23 23:32:00,32.1,22.4,29.83,SSE,168,0.0,0.0,67,0.00,,,0.03,Wunderground v.1.15,2013-02-24 04:32:00,
2013-02-23 23:38:00,32.1,22.4,29.83,SSE,168,0.0,1.0,67,0.00,,,0.03,Wunderground v.1.15,2013-02-24 04:38:00,
2013-02-23 23:47:00,31.9,22.5,29.83,SSW,192,0.0,1.0,68,0.00,,,0.03,Wunderground v.1.15,2013-02-24 04:47:00,
2013-02-23 23:52:00,31.9,22.5,29.83,SSW,193,0.0,0.0,68,0.00,,,0.03,Wunderground v.1.15,2013-02-24 04:52:00,